Regional Weather Roundup
Issued by NWS

Home | Current Version | Previous Version | Text Only | Print | Product List | Glossary Off
Versions: 1 2 3 4 5 6 7 8 9 10 11 12 13 14 15 16 17 18 19 20 21 22 23 24 25 26 27 28 29 30 31 32 33 34 35 36 37 38 39 40 41 42 43 44 45 46 47 48 49 50

975
ASUS43 KLSX 110657
RWRMO

WEATHER SUMMARY FOR MISSOURI
NATIONAL WEATHER SERVICE SPRINGFIELD MO
100 AM CST THU FEB 11 2016

NOTE: "FAIR" INDICATES FEW OR NO CLOUDS BELOW 12,000 FEET WITH NO
       SIGNIFICANT WEATHER AND/OR OBSTRUCTIONS TO VISIBILITY.
       CURRENT SKY AND/OR WEATHER CONDITIONS ARE NOT AVAILABLE FOR
       CHILLICOTHE AND FARMINGTON.

MOZ001>031-035>038-043-044-053-054-110800-
...NORTHERN AND WESTERN MISSOURI...

CITY           SKY/WX    TMP DP  RH WIND       PRES   REMARKS
KANSAS CTY INT CLEAR     25  21  85 NE12      30.11R WCI  14
LEE`S SUMMIT   CLEAR     25  20  81 NE13      30.09R WCI  14
ST JOSEPH      MOCLDY    26  20  77 NE13      30.17R WCI  15
CHILLICOTHE      N/A     24  19  81 NE10      30.18R WCI  14

$$
MOZ066>068-077>081-088>096-101>105-110800-
...SOUTHWEST MISSOURI...

CITY           SKY/WX    TMP DP  RH WIND       PRES   REMARKS
SPRINGFIELD    CLEAR     33  17  51 SE9       29.98S WCI  25
JOPLIN         CLEAR     35  24  64 E6        29.97R

$$
MOZ032>034-039>042-045>050-055>058-069>072-110800-
...CENTRAL MISSOURI...

CITY           SKY/WX    TMP DP  RH WIND       PRES   REMARKS
COLUMBIA       NOT AVBL
JEFFERSON CITY CLOUDY    25  19  78 E6        30.13R WCI  18
ROLLA          CLOUDY    23  17  78 E7        30.05S WCI  15
SEDALIA        CLOUDY    26  19  74 NE13      30.10R WCI  15

$$
MOZ051-052-059>065-110800-
...EAST CENTRAL MISSOURI...

CITY           SKY/WX    TMP DP  RH WIND       PRES   REMARKS
ST LOUIS INTL  CLOUDY    24  18  77 NE7       30.16S WCI  16

$$
MOZ072>076-082>087-097>100-106>115-110800-
...SOUTH CENTRAL AND SOUTHEAST MISSOURI...

CITY           SKY/WX    TMP DP  RH WIND       PRES   REMARKS
CAPE GIRARDEAU CLOUDY    21  17  84 E6        30.15S WCI  13
POPLAR BLUFF   PTCLDY    23  18  81 NE6       30.12R WCI  16
WEST PLAINS    CLOUDY    25   9  50 NE8       30.05R WCI  16

$$



USA.gov is the U.S. government's official web portal to all federal, state and local government web resources and services.